x

Isle Of Portland (03857) Weather Station

6:00 - Sat 20th Dec 2014 All times are GMT.

  • Wind
    28mph, 40mph gusts
  • Aire Temp 48°f
  • Sea Pressure 1026mb
  • Isle Of Portland
  • Isle Of Portland

More Historic Weather Station data

Upgrade to MSW Pro to gain access to the past 30 days of data for over 8000 Wavebouys and Weather Stations around the globe.

Join Pro

Comparision Forecast

View Surf forecast
   
sáb 12/20 6:00 28 40 mph 1026mb 48f
5:00 29 38 mph 1026mb 49f
4:00 26 38 mph 1026mb 49f
3:00 26 36 mph 1026mb 49f
2:00 26 38 mph 1026mb 49f
1:00 28 33 mph 1026mb 49f
12:00 25 37 mph 1026mb 49f
vie 12/19 11:00 24 31 mph 1026mb 49f
10:00 23 31 mph 1025mb 49f
9:00 23 30 mph 1025mb 49f
8:00 26 33 mph 1024mb 49f
7:00 23 34 mph 1024mb 49f
6:00 22 33 mph 1023mb 49f
5:00 19 36 mph 1022mb 49f
4:00 25 41 mph 1021mb 49f
3:00 32 43 mph 1020mb 50f
2:00 24 34 mph 1019mb 50f
1:00 24 37 mph 1019mb 50f
12:00 26 37 mph 1018mb 50f
11:00 24 37 mph 1018mb 49f
10:00 22 32 mph 1017mb 50f
9:00 24 33 mph 1015mb 50f
8:00 24 37 mph 1013mb 52f
7:00 25 40 mph 1012mb 53f
6:00 31 43 mph 1011mb 54f
5:00 33 46 mph 1011mb 54f
4:00 36 47 mph 1011mb 53f
3:00 36 51 mph 1012mb 53f
2:00 37 48 mph 1012mb 54f
1:00 34 45 mph 1013mb 53f
12:00 34 47 mph 1013mb 53f
jue 12/18 11:00 32 45 mph 1014mb 53f
10:00 33 48 mph 1014mb 53f
9:00 36 49 mph 1014mb 53f
8:00 39 49 mph 1014mb 53f
7:00 33 45 mph 1014mb 53f
6:00 33 47 mph 1014mb 53f
5:00 39 49 mph 1013mb 53f
4:00 39 47 mph 1013mb 53f
3:00 37 48 mph 1013mb 53f
2:00 33 44 mph 1013mb 53f
1:00 32 40 mph 1014mb 53f
12:00 30 40 mph 1014mb 53f
11:00 28 38 mph 1015mb 53f
10:00 29 47 mph 1014mb 53f
9:00 34 46 mph 1014mb 53f
8:00 33 43 mph 1013mb 53f
7:00 26 34 mph 1013mb 53f
6:00 26 36 mph 1013mb 53f
5:00 28 34 mph 1013mb 53f
4:00 24 39 mph 1013mb 53f
3:00 32 39 mph 1012mb 53f
2:00 29 34 mph 1012mb 53f
1:00 25 33 mph 1012mb 53f
12:00 26 31 mph 1012mb 53f
mié 12/17 11:00 23 31 mph 1012mb 54f
10:00 22 30 mph 1012mb 53f
9:00 22 29 mph 1011mb 54f
8:00 22 30 mph 1011mb 54f
7:00 22 31 mph 1011mb 53f
6:00 23 29 mph 1010mb 53f
5:00 21 29 mph 1010mb 53f
4:00 21 31 mph 1009mb 54f
3:00 21 29 mph 1009mb 54f
2:00 21 31 mph 1009mb 53f
1:00 21 29 mph 1009mb 54f
12:00 24 33 mph 1009mb 54f
11:00 26 34 mph 1008mb 54f
10:00 22 36 mph 1008mb 54f
9:00 29 36 mph 1007mb 53f
8:00 26 33 mph 1007mb 53f
7:00 25 37 mph 1007mb 53f
6:00 25 39 mph 1007mb 53f
5:00 32 40 mph 1006mb 52f
4:00 30 37 mph 1007mb 53f
3:00 28 40 mph 1007mb 53f
2:00 26 34 mph 1008mb 53f
1:00 24 33 mph 1008mb 52f
12:00 25 34 mph 1009mb 52f
mar 12/16 11:00 22 30 mph 1011mb 50f
10:00 22 30 mph 1012mb 50f
9:00 21 29 mph 1014mb 49f
8:00 19
mph
1015mb 50f
7:00 18
mph
1015mb 50f
6:00 17
mph
1016mb 49f
5:00 15
mph
1016mb 49f
4:00 14
mph
1016mb 48f
3:00 18
mph
1017mb 48f
2:00 19
mph
1016mb 48f
1:00 15
mph
- -
12:00 11
mph
1018mb 48f
11:00 13
mph
1018mb 47f
10:00 11
mph
1017mb 47f
9:00 10
mph
1017mb 46f
8:00 11
mph
1016mb 45f